Regional Weather Roundup
Issued by NWS

Home | Current Version | Previous Version | Text Only | Print | Product List | Glossary Off
Versions: 1 2 3 4 5 6 7 8 9 10 11 12 13 14 15 16 17 18 19 20 21 22 23 24 25 26 27 28 29

000
ASUS45 KGTF 200110
RWRMT
MONTANA HOURLY WEATHER ROUNDUP
NATIONAL WEATHER SERVICE GREAT FALLS MT
700 PM MDT SUN APR 19 2015

NOTE: "FAIR" INDICATES FEW OR NO CLOUDS BELOW 12000 FEET WITH NO
SIGNIFICANT WEATHER AND/OR OBSTRUCTIONS TO VISIBILITY.

MTZ001>007-043-200200-
WEST OF THE DIVIDE

CITY           SKY/WX    TMP DP  RH WIND       PRES   REMARKS
KALISPELL      CLEAR     61  26  26 SE5       30.01F
MISSOULA       SUNNY     61  26  26 N14       30.01S
BUTTE          CLOUDY    52  22  30 NE5       30.03F
DEER LODGE       N/A     54  25  32 NE8       30.06F
EUREKA           N/A     64  25  22 CALM      30.02F
HAMILTON         N/A     63  25  23 N5        29.99S
LIBBY            N/A     66  25  20 NW3       30.00F
$$

MTZ008-052>055-200200-
SOUTHWEST MONTANA

CITY           SKY/WX    TMP DP  RH WIND       PRES   REMARKS
BOZEMAN        PTSUNNY   51  26  37 N8        30.05F
DILLON         SUNNY     57  24  28 NE14      29.99S
$$

MTZ009-010-012-014-046-048-049-054-200200-
EAST SLOPES AND CENTRAL MONTANA

CITY           SKY/WX    TMP DP  RH WIND       PRES   REMARKS
CUT BANK       SUNNY     52  19  27 NE3       30.08F
GREAT FALLS    CLOUDY    49  19  30 SE5       30.09F
MALMSTROM AFB  MOSUNNY   50  18  28 SE5       30.10F
HELENA         SUNNY     55  26  32 N13       30.05S
$$

MTZ011-013-016-021-045-047-050-051-200200-
NORTH CENTRAL MONTANA

CITY           SKY/WX    TMP DP  RH WIND       PRES   REMARKS
HAVRE          PTSUNNY   53  18  25 N8        30.10F
LEWISTOWN      SUNNY     48  20  32 N10       30.10S
CHINOOK          N/A     52  18  25 N8        30.10F
FORT BENTON      N/A     54  16  22 N6        30.10F
$$

MTZ017>020-022>042-056>058-061-062-200200-
EASTERN PLAINS

CITY           SKY/WX    TMP DP  RH WIND       PRES   REMARKS
BAKER          MOCLDY    47  15  27 N18G29    30.01S
BILLINGS       PTSUNNY   50  16  25 NE8       30.08S
GLASGOW        MOCLDY    50  18  28 NW17      30.06F
JORDAN           N/A     48  19  31 NW15      30.08S
LIVINGSTON     CLOUDY    50  24  36 E6        30.06F
MILES CITY     MOCLDY    49  17  28 N17       30.06F
SIDNEY         CLEAR     50  14  23 NW17G24   30.01S
WOLF POINT     CLOUDY    51  18  27 NW16      30.04F
BIG TIMBER       N/A     46  25  42 NW5       30.09S
FORSYTH          N/A     48  18  29 NW10      30.08S
PLENTYWOOD       N/A     48  14  25 NW16G25   29.99S
POPLAR           N/A     50  12  22 NW16G23   30.03R
$$

REGIONAL REPORTS...DAKOTAS

CITY           SKY/WX    TMP DP  RH WIND       PRES   REMARKS
WILLISTON      PTCLDY    49  16  26 N24       29.99S
MINOT          CLOUDY    44  28  53 NW22G31   29.89S
DICKINSON      CLEAR     44  25  47 N14       29.94S
BEACH          FAIR      45   9  23 N18G29    30.00S
CROSBY         FAIR      45  23  42 N15G23    29.98S
WATFORD CITY   FAIR      45  23  42 N17G25    29.96S
BISMARCK       CLOUDY    46  28  49 NW21G33   29.90S
GRAND FORKS    MOCLDY    42  34  73 N17       29.74R
FARGO          CLOUDY    46  38  73 N13       29.74R
BUFFALO SD       N/A     46  17  31 NW25G32   29.91S
RAPID CITY     PTCLDY    48  19  31 NW24G32   29.99R
$$

REGIONAL REPORTS...WYOMING/IDAHO/WASHINGTON

CITY           SKY/WX    TMP DP  RH WIND       PRES   REMARKS
GILLETTE       CLOUDY    43  15  32 N15       30.05R
SHERIDAN       PTCLDY    45  18  34 N14       30.08S
BUFFALO WY     MOCLDY    43  16  33 N18G30    30.06S
CODY           CLOUDY    45  19  36 N10       30.07S
YELLOWSTONE LA   N/A     39  18  42 VRB6      30.08S
IDAHO FALLS    PTSUNNY   60  24  25 SW15      29.96F
SALMON         PTSUNNY   66  21  18 NW13      29.93F
BOISE          SUNNY     67  28  23 NW12      29.96F
SPOKANE        MOSUNNY   68  26  20 W9        30.01F
$$

REGIONAL REPORTS...ALBERTA

CITY           SKY/WX    TMP DP  RH WIND       PRES   REMARKS
EDMONTON       MOSUNNY   55  18  22 NW6       30.03F
CALGARY        MOSUNNY   57  21  24 S8        30.04F
LETHBRIDGE     MOSUNNY   54  21  28 SE5       30.07F
MEDICINE HAT   MOSUNNY   54  19  26 N7        30.09F
$$

REGIONAL REPORTS...SASKATCHEWAN

CITY           SKY/WX    TMP DP  RH WIND       PRES   REMARKS
SWIFT CURRENT  PTSUNNY   46  21  36 NW16      30.06F
REGINA         PTCLDY    46  14  27 N18G26    30.01S
SASKATOON      PTCLDY    48   9  20 N14       30.07S
$$



USA.gov is the U.S. government's official web portal to all federal, state and local government web resources and services.